Miscellaneous Local Product
Issued by NWS Hastings, NE

Home | Current Version | Previous Version | Graphics & Text | Print | Product List | Glossary On
Versions: 1 2 3 4 5 6 7 8 9 10 11 12 13 14 15 16 17 18 19 20 21 22 23 24 25 26 27 28 29 30 31 32 33 34 35 36 37 38 39 40 41 42 43 44 45 46 47 48 49 50
938
AXUS43 KGID 221102
MISGRI

GID CWA HOURLY WEATHER ROUNDUP
NATIONAL WEATHER SERVICE HASTINGS NE
600 AM CDT FRI JUL 22 2016

NOTE: "FAIR" INDICATES FEW OR NO CLOUDS BELOW 12,000 FEET WITH NO
SIGNIFICANT WEATHER AND/OR OBSTRUCTIONS TO VISIBILITY.

...SOUTH CENTRAL NEBRASKA...

CITY           SKY/WX    TMP DP  RH WIND       PRES   REMARKS
GRAND ISLAND   CLEAR     74  68  81 SW3       29.94R
HASTINGS       CLEAR     73  67  81 CALM      29.95S
KEARNEY        CLEAR     73  70  88 NW7       29.96S
ORD            CLEAR     72  69  90 N5        29.94R
YORK           CLEAR     72  68  88 SW6       29.93S
AURORA         CLEAR     71  69  94 W5        29.93S
LEXINGTON      CLEAR     72  70  94 NW6       29.99R FOG
HOLDREGE       CLEAR     72  70  92 CALM      29.97R
HEBRON         CLEAR     79  66  65 S8        29.93S

...NEBRASKA PANHANDLE...

CITY           SKY/WX    TMP DP  RH WIND       PRES   REMARKS
CHADRON        CLOUDY    70  59  68 SE3       30.08R
ALLIANCE       CLOUDY    64  61  90 NE5       30.11S
SCOTTSBLUFF    CLOUDY    71  65  81 CALM      30.11S
SIDNEY         CLOUDY    70  62  76 W3        30.14S

...WESTERN AND NORTH CENTRAL NEBRASKA...

CITY           SKY/WX    TMP DP  RH WIND       PRES   REMARKS
VALENTINE      CLEAR     67  65  93 W5        30.03R
AINSWORTH      CLEAR     72  72 100 NW5       30.02R
ONEILL         FOG       74  73  95 NE3       29.96F VSB 1/2
BROKEN BOW     CLEAR     72  71  97 N6        29.99S
IMPERIAL       MOCLDY    70  65  84 N7        30.04F
NORTH PLATTE   CLEAR     70  68  93 CALM      30.02S
MCCOOK         PTCLDY    72  69  90 N7        29.98S

...EASTERN NEBRASKA...

CITY           SKY/WX    TMP DP  RH WIND       PRES   REMARKS
NORFOLK        CLOUDY    74  72  93 SE5       29.92R
SO SIOUX CITY  PTCLDY    80  77  90 E5        29.90S
TEKAMAH        CLOUDY    78  75  90 SE3       29.91R
COLUMBUS       CLOUDY    75  64  69 SE3       29.92R
ALBION         CLOUDY    73  70  90 CALM      29.93S
OMAHA EPPLEY   PTCLDY    82  74  76 S9        29.91R
OFFUTT AFB     CLEAR     78  75  89 E5        29.91S
MILLARD        CLEAR     78  74  86 SE5       29.91S
LINCOLN        CLEAR     79  71  76 S6        29.92R
NEBRASKA CITY  CLEAR     77  72  83 S9        29.94R
BEATRICE       CLEAR     78  70  76 S7        29.94S
FALLS CITY     CLEAR     80  72  76 S9        29.94S

...NORTHERN KANSAS...

CITY           SKY/WX    TMP DP  RH WIND       PRES   REMARKS
GOODLAND       PTCLDY    73  60  63 NW5       30.06S
HILL CITY      PTCLDY    77  63  61 SW7       29.96R
NORTON         SUNNY     70  61  73 E3        29.95S
SMITH CENTER   CLEAR     70  64  83 SE7       29.96S
BELOIT         CLEAR     79  66  65 S5        29.94S
HAYS           CLEAR     66  59  77 SW10      29.96F
RUSSELL        CLEAR     77  65  66 S17       29.95F
CONCORDIA      CLEAR     79  66  64 S15       29.94S
SALINA         CLEAR     81  69  67 S12       29.96F
TOPEKA         CLEAR     81  71  71 SW6       29.98S



USA.gov is the U.S. government's official web portal to all federal, state and local government web resources and services.